Wind_Speed
37 38 40 41 42 43 43 44 44 45 46 46 45 45 44 45 45 43 40 40 39 37 36 37 36 36 35 34 32 30 28 24 23 23 23 21 20 21 20 18 18 17 19 20 21
39 41 42 43 45 46 46 47 48 48 48 49 49 46 46 46 46 45 41 44 43 41 39 38 37 38 38 35 33 31 29 26 23 24 24 23 22 21 22 21 21 19 18 18 19
40 41 42 43 44 47 50 52 53 54 54 54 54 52 50 47 47 44 46 46 46 45 42 41 39 39 39 37 35 33 30 26 23 24 25 24 22 22 22 23 22 21 18 17 17
39 40 43 47 51 54 56 59 60 62 62 61 60 59 56 53 51 48 49 49 49 48 45 42 41 41 40 39 36 33 30 26 23 24 24 24 23 22 22 23 23 22 20 18 17
38 42 46 49 50 52 54 57 60 60 60 61 63 64 62 57 54 52 52 51 51 50 48 45 42 41 41 38 35 33 29 25 23 23 23 22 21 22 23 23 24 23 21 19 20
39 42 42 43 47 49 52 55 55 56 56 54 54 59 63 61 58 55 53 52 51 51 49 46 43 42 41 38 37 35 28 27 23 21 22 23 22 21 24 24 23 23 23 22 23
36 37 41 46 45 48 47 46 46 47 49 51 50 50 54 51 58 58 55 54 51 52 50 47 43 43 41 41 39 41 32 26 25 24 23 25 22 23 24 25 25 24 24 24 26
34 39 43 41 43 40 36 36 34 33 35 41 45 43 40 50 54 58 56 54 52 51 50 47 45 44 43 41 41 41 35 27 20 22 24 25 20 24 27 27 26 26 26 25 27
34 38 37 38 35 31 25 22 20 24 25 29 35 34 40 45 49 55 54 53 51 51 49 47 45 44 43 41 38 36 32 31 24 23 23 25 21 25 28 29 28 28 28 28 29
32 35 33 30 25 19 17 13 10 15 19 24 30 35 39 40 45 51 52 51 50 49 48 47 45 44 41 41 39 32 33 30 23 27 29 25 21 26 29 29 28 29 29 29 30
30 31 31 22 14 12 4 2 4 10 13 19 26 31 35 37 42 47 49 48 47 46 46 44 43 41 40 37 35 34 28 26 29 26 30 27 22 25 29 27 29 29 30 29 31
27 27 26 17 8 3 2 2 6 8 12 18 25 28 32 36 39 43 45 45 43 43 42 42 39 40 40 36 34 32 26 24 23 25 24 27 21 25 28 29 29 30 30 30 31
24 25 21 17 8 5 6 7 8 12 18 22 25 28 32 34 36 39 40 40 39 39 39 37 36 37 37 33 32 31 29 30 26 29 29 28 24 23 27 28 29 30 30 31 32
22 21 19 17 14 11 11 12 14 17 20 21 26 28 31 32 33 36 35 37 36 36 35 35 35 34 34 34 32 30 29 27 29 30 30 26 28 22 27 28 29 30 31 32 32
18 15 17 16 16 16 17 18 18 15 17 20 24 25 29 29 32 33 32 32 32 31 32 33 32 31 31 31 31 31 30 28 29 29 29 23 27 23 25 28 29 30 31 31 31
16 12 12 10 12 10 12 16 15 12 11 17 19 21 25 25 26 29 28 28 28 29 30 30 30 31 32 33 32 29 26 25 25 25 26 23 24 28 26 27 29 29 29 29 29
15 13 6 6 8 6 6 20 14 10 16 15 15 19 24 26 25 26 26 27 27 27 28 29 29 29 30 30 28 25 22 23 25 25 25 24 26 27 27 28 28 28 28 28 29
8 11 4 1 4 3 12 19 18 17 10 12 15 17 20 20 21 24 23 23 22 22 22 22 26 26 26 25 23 21 20 21 24 24 25 25 27 26 26 25 26 27 28 28 29
8 6 3 1 2 5 14 17 15 10 12 10 13 15 16 19 19 23 22 20 20 18 22 22 22 22 21 21 20 18 19 21 24 25 27 26 26 26 25 27 27 28 29 30 31
8 4 5 4 3 6 14 12 10 6 3 12 14 15 16 19 15 10 18 17 15 18 18 18 17 18 17 17 17 18 19 21 22 26 25 26 26 27 26 28 29 30 31 33 35
7 6 7 7 6 6 11 11 13 7 9 9 9 9 6 11 14 12 11 14 15 15 15 16 15 15 16 16 17 18 19 21 23 24 26 27 30 27 28 30 31 33 34 37 39
8 9 9 9 12 8 10 11 12 11 9 8 8 9 8 9 10 11 13 13 13 13 14 14 14 14 15 16 17 18 19 21 23 24 25 27 29 29 30 33 35 38 40 42 44
8 11 12 12 13 12 12 12 10 10 9 7 6 6 8 8 9 10 10 11 12 12 13 13 13 14 15 16 17 18 19 20 22 24 23 28 31 32 35 38 40 42 44 46 47
14 10 12 14 15 17 15 14 10 8 9 9 9 9 9 9 9 10 11 12 13 13 14 14 14 15 15 15 16 17 18 20 22 25 29 29 35 37 41 42 43 44 45 45 45
22 14 12 13 20 21 21 18 16 14 12 11 10 11 11 12 13 13 13 13 13 13 12 12 13 13 14 15 16 17 20 23 26 29 32 35 36 38 40 42 43 43 43 44 44
29 22 18 14 18 22 22 19 18 15 13 12 11 11 10 10 11 11 11 11 11 10 10 10 11 12 14 17 19 20 24 26 28 30 31 33 34 37 37 38 39 40 42 46 49
32 28 24 20 20 20 19 20 18 15 13 12 11 10 10 10 10 9 9 9 8 9 10 11 13 16 16 20 22 22 24 26 26 26 28 29 31 33 35 38 41 43 46 48 51
Wind_Direction
287 286 283 279 275 271 267 264 260 258 255 251 248 244 238 235 235 237 233 228 225 228 225 225 228 228 232 237 241 246 249 253 254 257 261 262 264 270 273 274 274 273 272 272 271
291 288 284 280 276 273 268 264 259 255 252 251 248 243 240 235 233 233 229 228 225 224 224 225 226 228 230 235 242 247 253 254 254 253 259 261 262 267 273 277 277 276 275 273 270
291 287 284 280 277 275 271 268 263 258 253 248 247 243 239 236 233 228 229 228 225 222 222 222 223 227 229 233 239 246 252 260 256 254 255 261 264 266 269 273 277 278 279 275 268
293 291 289 286 283 279 274 269 264 260 256 250 244 241 236 234 229 224 225 225 223 222 220 220 222 224 230 231 237 243 252 258 259 258 258 260 262 263 266 269 272 276 280 276 268
297 296 294 291 288 283 279 273 266 261 255 250 245 239 234 230 229 223 222 222 221 220 219 219 220 223 227 232 236 243 248 254 259 259 260 263 265 266 268 269 271 276 279 275 267
307 306 302 298 297 291 287 280 270 260 252 247 242 237 232 228 224 220 218 220 219 218 218 218 219 221 225 232 237 241 243 249 254 260 264 264 265 271 271 271 272 277 278 274 269
317 310 307 306 300 294 284 273 266 257 247 240 237 234 230 223 219 217 215 216 216 216 216 217 217 219 224 229 234 235 236 243 251 252 265 268 269 269 270 271 276 277 275 274 271
319 316 316 311 301 293 281 273 267 256 248 239 232 230 222 216 212 212 210 213 212 214 214 215 216 216 221 228 235 242 232 232 245 244 265 265 265 268 270 271 273 274 275 275 274
325 327 325 316 308 296 279 280 267 242 232 228 224 218 208 208 207 206 207 209 209 211 212 213 215 216 220 227 234 240 253 231 246 257 254 265 268 266 269 271 273 274 275 276 278
335 338 334 325 314 306 286 279 250 222 216 205 198 196 199 203 202 201 202 206 208 209 210 211 214 216 219 225 231 242 242 244 243 250 251 267 272 269 267 270 273 274 275 278 280
343 349 348 339 333 336 337 285 201 185 189 194 194 192 193 194 194 197 197 202 206 208 209 211 214 215 220 227 231 238 247 243 242 256 255 262 270 266 267 268 271 274 277 278 280
352 356 1 355 9 17 186 168 164 185 180 174 177 178 182 184 185 193 193 198 203 207 208 209 211 214 219 224 231 239 243 252 252 255 260 265 266 259 265 269 270 271 274 278 281
1 5 12 21 29 83 120 134 141 151 155 159 164 170 173 177 182 189 191 195 200 203 207 209 211 214 220 223 230 236 241 239 248 256 264 268 269 264 265 268 272 276 279 282 283
9 16 27 41 58 79 102 116 124 136 144 154 161 164 168 172 181 185 188 194 198 200 204 209 210 213 216 223 227 230 234 250 257 262 267 268 272 268 270 272 275 279 281 284 285
8 17 30 51 68 85 102 113 117 129 146 154 157 162 164 172 180 181 183 190 193 198 203 209 210 211 213 221 225 232 241 251 256 261 265 269 275 272 271 275 280 282 284 284 285
356 8 28 63 87 117 124 131 101 126 141 149 156 159 165 172 177 179 181 185 190 197 200 208 213 217 221 228 235 240 244 248 252 259 265 274 275 280 284 284 284 286 287 287 287
341 355 25 67 88 124 115 110 109 129 143 147 154 163 169 169 176 176 182 185 192 199 205 209 215 220 223 228 233 237 242 254 260 264 272 277 279 283 288 290 291 290 288 286 285
312 339 359 22 98 89 74 93 86 109 139 154 163 159 172 179 171 176 181 190 195 202 212 215 220 224 226 230 234 238 247 257 267 272 276 279 283 287 288 290 289 288 288 288 288
280 314 308 329 136 85 89 66 67 109 143 151 167 165 171 184 189 178 191 195 206 209 213 216 220 225 225 230 236 241 251 259 270 275 280 283 287 287 290 290 289 289 290 291 291
270 259 249 245 185 88 96 82 81 110 185 119 117 148 195 187 176 179 171 201 203 209 214 215 216 220 223 230 240 250 258 266 271 278 283 286 289 291 292 291 291 292 292 292 292
257 225 228 217 197 149 118 115 111 91 74 89 93 122 117 123 159 171 176 197 198 200 203 207 216 224 231 240 249 258 264 269 274 280 285 289 290 293 292 292 292 293 295 296 295
239 220 209 207 188 181 160 143 138 134 124 116 131 145 153 168 174 180 193 197 199 204 212 219 226 236 242 251 258 264 268 272 277 282 285 288 290 295 295 296 297 298 297 296 294
231 220 205 201 196 191 185 173 163 166 161 162 163 174 191 198 198 202 210 214 218 223 226 231 237 245 252 258 263 267 272 276 279 284 288 290 296 295 296 297 297 296 294 293 294
220 228 217 205 200 203 202 196 198 208 205 203 210 216 221 223 223 224 226 228 229 231 235 238 243 250 258 264 268 274 279 283 287 290 292 296 296 298 298 298 296 296 297 297 297
220 219 225 217 208 210 215 218 229 233 232 235 235 235 233 233 233 232 232 233 233 234 238 243 251 258 264 271 276 281 286 291 295 296 298 299 299 298 299 300 302 302 301 301 302
220 219 227 227 221 219 218 219 225 225 228 235 237 234 231 229 228 226 227 229 232 235 241 249 258 267 276 283 289 294 294 295 297 300 301 302 302 303 306 306 306 305 304 304 303
219 219 225 230 225 221 216 215 218 220 228 230 224 221 219 218 218 220 223 230 240 250 260 270 277 282 286 287 290 294 296 299 300 302 303 307 311 313 312 310 308 305 303 301 299
Height
5820 5817 5816 5814 5813 5812 5812 5813 5815 5817 5819 5822 5826 5830 5835 5839 5844 5849 5855 5860 5862 5865 5869 5873 5878 5881 5883 5886 5889 5891 5893 5895 5895 5895 5895 5896 5896 5896 5896 5896 5896 5896 5894 5893 5891
5809 5807 5805 5803 5802 5801 5800 5801 5802 5805 5807 5810 5813 5819 5824 5829 5834 5841 5848 5850 5855 5858 5863 5868 5872 5876 5878 5881 5884 5886 5889 5890 5892 5891 5892 5892 5892 5892 5892 5892 5891 5891 5891 5889 5887
5800 5797 5794 5792 5790 5789 5788 5788 5788 5790 5793 5797 5801 5807 5812 5818 5824 5833 5836 5841 5847 5851 5856 5861 5866 5870 5873 5876 5880 5882 5885 5886 5888 5887 5888 5888 5888 5888 5888 5887 5887 5886 5886 5885 5884
5789 5786 5782 5779 5776 5773 5771 5770 5770 5772 5775 5780 5785 5791 5800 5807 5813 5821 5825 5831 5838 5843 5849 5854 5859 5864 5868 5871 5875 5878 5880 5882 5883 5883 5884 5884 5885 5884 5883 5883 5882 5881 5881 5881 5880
5780 5775 5770 5765 5760 5756 5753 5750 5749 5751 5754 5759 5766 5775 5784 5794 5802 5810 5815 5822 5829 5835 5842 5848 5853 5859 5862 5866 5869 5872 5876 5878 5879 5879 5880 5880 5880 5880 5878 5877 5877 5877 5877 5876 5875
5770 5764 5758 5752 5746 5740 5735 5731 5729 5731 5736 5742 5749 5757 5767 5782 5787 5797 5805 5813 5821 5828 5834 5841 5847 5853 5857 5861 5864 5867 5871 5873 5874 5875 5876 5876 5876 5875 5874 5873 5873 5872 5872 5871 5870
5760 5754 5748 5740 5732 5725 5718 5714 5712 5714 5719 5726 5735 5743 5754 5767 5773 5786 5796 5804 5813 5820 5827 5834 5842 5847 5852 5856 5859 5862 5864 5867 5869 5870 5870 5870 5872 5870 5869 5868 5868 5867 5866 5865 5864
5753 5746 5737 5727 5718 5710 5704 5702 5702 5704 5708 5715 5723 5734 5745 5749 5763 5775 5786 5796 5804 5812 5820 5828 5834 5840 5846 5850 5853 5856 5858 5861 5864 5865 5865 5865 5867 5865 5864 5863 5863 5862 5861 5859 5858
5747 5738 5728 5717 5707 5700 5697 5696 5695 5697 5701 5707 5716 5726 5734 5743 5755 5765 5778 5788 5797 5805 5814 5821 5828 5835 5840 5845 5848 5850 5853 5855 5858 5859 5860 5860 5862 5860 5858 5857 5857 5856 5855 5854 5852
5742 5733 5723 5711 5703 5697 5694 5692 5692 5694 5699 5703 5711 5720 5728 5737 5748 5759 5771 5782 5792 5800 5808 5816 5822 5829 5835 5838 5843 5847 5848 5848 5851 5854 5854 5855 5856 5854 5852 5851 5850 5849 5849 5848 5846
5739 5730 5720 5710 5702 5697 5695 5694 5696 5697 5699 5702 5708 5715 5724 5734 5745 5756 5766 5778 5787 5796 5804 5812 5818 5825 5831 5835 5839 5841 5842 5844 5846 5847 5848 5850 5852 5848 5846 5846 5845 5843 5842 5841 5839
5738 5730 5721 5712 5706 5702 5700 5699 5699 5700 5702 5704 5710 5717 5725 5734 5744 5754 5765 5776 5784 5793 5800 5808 5815 5820 5825 5829 5833 5836 5839 5840 5841 5842 5842 5844 5846 5843 5841 5839 5839 5837 5836 5835 5833
5739 5732 5724 5716 5710 5707 5704 5703 5703 5703 5706 5710 5715 5721 5729 5738 5747 5756 5764 5773 5782 5791 5797 5805 5812 5817 5821 5826 5829 5832 5834 5835 5836 5837 5837 5837 5839 5838 5835 5833 5832 5831 5830 5828 5826
5741 5736 5730 5723 5718 5713 5711 5709 5710 5711 5714 5718 5721 5726 5733 5741 5749 5756 5764 5773 5781 5788 5794 5801 5807 5812 5817 5821 5824 5826 5829 5830 5831 5831 5831 5832 5831 5831 5828 5827 5826 5824 5823 5820 5818
5745 5741 5735 5730 5725 5721 5719 5717 5718 5719 5722 5726 5728 5733 5738 5745 5752 5758 5765 5773 5780 5787 5794 5799 5804 5808 5812 5816 5819 5822 5823 5825 5825 5825 5825 5826 5824 5825 5824 5821 5820 5818 5816 5814 5811
5749 5745 5740 5736 5732 5725 5724 5722 5725 5728 5728 5732 5735 5738 5743 5749 5755 5760 5766 5773 5779 5785 5790 5796 5801 5805 5809 5812 5815 5817 5819 5819 5820 5820 5820 5821 5820 5817 5817 5815 5813 5811 5809 5806 5804
5751 5748 5744 5740 5737 5734 5731 5729 5731 5730 5734 5737 5739 5742 5747 5751 5756 5762 5767 5773 5779 5784 5788 5793 5797 5801 5804 5808 5810 5813 5814 5814 5815 5815 5815 5814 5813 5811 5810 5807 5805 5804 5802 5799 5797
5751 5750 5747 5744 5741 5740 5737 5736 5734 5736 5738 5740 5744 5745 5751 5752 5758 5763 5769 5773 5778 5783 5787 5791 5796 5798 5801 5804 5806 5808 5810 5810 5809 5809 5809 5808 5806 5805 5803 5801 5799 5797 5794 5792 5789
5751 5750 5748 5747 5744 5744 5742 5739 5740 5742 5743 5745 5747 5750 5753 5756 5758 5763 5769 5773 5778 5781 5785 5788 5792 5794 5797 5799 5802 5804 5804 5805 5804 5803 5802 5802 5801 5799 5797 5795 5792 5789 5787 5784 5782
5751 5750 5749 5749 5748 5746 5745 5744 5746 5745 5745 5745 5745 5751 5754 5757 5760 5762 5767 5773 5776 5779 5782 5786 5789 5791 5793 5795 5797 5798 5800 5800 5799 5797 5797 5795 5794 5792 5790 5788 5785 5782 5779 5777 5774
5750 5749 5750 5749 5750 5750 5748 5749 5749 5749 5749 5750 5750 5753 5755 5756 5761 5765 5768 5772 5775 5778 5780 5783 5786 5789 5790 5791 5792 5793 5794 5794 5793 5793 5791 5789 5786 5786 5783 5781 5778 5775 5773 5769 5765
5748 5748 5748 5749 5750 5751 5752 5752 5752 5753 5753 5753 5755 5756 5757 5760 5762 5764 5768 5771 5773 5775 5778 5780 5782 5784 5786 5786 5787 5788 5788 5788 5787 5787 5785 5783 5782 5778 5776 5773 5771 5768 5764 5760 5755
5746 5746 5746 5748 5749 5751 5752 5752 5753 5754 5755 5755 5756 5757 5759 5761 5763 5765 5767 5769 5772 5774 5776 5778 5779 5780 5781 5783 5783 5783 5783 5783 5782 5780 5780 5777 5775 5772 5769 5766 5763 5758 5754 5749 5744
5743 5744 5745 5745 5747 5749 5751 5752 5753 5754 5755 5756 5757 5758 5759 5760 5762 5764 5766 5768 5770 5772 5773 5774 5775 5776 5778 5778 5778 5778 5778 5777 5777 5776 5773 5773 5767 5764 5759 5756 5752 5748 5743 5738 5733
5739 5741 5742 5743 5744 5745 5747 5750 5751 5752 5754 5755 5756 5757 5758 5759 5761 5762 5764 5766 5767 5768 5769 5771 5771 5772 5773 5773 5774 5774 5773 5772 5771 5769 5767 5763 5760 5755 5751 5746 5742 5738 5733 5728 5724
5733 5736 5738 5740 5741 5742 5744 5747 5749 5750 5752 5753 5754 5755 5756 5757 5759 5760 5762 5763 5764 5765 5766 5767 5768 5769 5769 5769 5769 5769 5767 5766 5764 5761 5758 5754 5751 5747 5743 5739 5735 5730 5725 5720 5714
5725 5730 5732 5736 5738 5740 5742 5743 5746 5748 5750 5751 5752 5753 5754 5756 5757 5758 5759 5760 5761 5762 5763 5764 5765 5765 5765 5763 5762 5763 5761 5758 5755 5753 5750 5747 5744 5739 5735 5730 5725 5720 5714 5708 5701